Starlink 32466

operational
NORAD ID: 61859 Int'l Des: 2024-202 Owner: SPXS Country: US Constellation: starlink
LEOCIRCULAR

关于 Starlink 32466

正在加载描述...

实时位置

正在加载3D地球...

即将过境

高度历史

Altitude vs Time

uPlot chart will show altitude changes over time

两行轨道根数

1 61859U 24202Q 26036.10210227 -.00000213 00000-0 17830-5 0 9992
2 61859 42.9981 62.0381 0000370 261.1547 98.9262 15.27569138 70358
Epoch: Feb 5, 2026 • Age: 11 hours

当前状态

高度 493.0 km
速度 7.62 km/s
星下点 -35.30°S, 37°E
发射日期 Nov 7, 2024
运行时间 1.2 years
类型 internet

技术详情

分类 Payload
质量 730.00 kg
干质量 700.00 kg
总质量 730.00 kg
长度 0.30 m
直径 4.10 m
跨度 29.00 m
形状 Box + pan
制造商 SPXS
平台类型 Starlink V2M
阶段状态 In Orbit
所有者/国家 SPXS/US

大型星座

Loading constellations...